[Date Prev][Date Next][Thread Prev][Thread Next] - [Date Index][Thread Index][Author Index]
2 Line ISS Keps 12-4
- Subject: [sarex] 2 Line ISS Keps 12-4
- From: "Dave Larsen Ph.D." <doc@xxxxxxxxxxx>
- Date: Wed, 4 Dec 2002 04:12:10 -0800
ISS
1 25544U 98067A 02338.18173611 .00023541 00000-0 32777-3 0 4397
2 25544 51.6351 279.4561 0003065 234.1942 323.5898 15.56821733230482
----
Via the sarex mailing list at AMSAT.ORG courtesy of AMSAT-NA.
To unsubscribe, send "unsubscribe sarex" to Majordomo@amsat.org
AMSAT Home